Regional Weather Roundup
Issued by NWS

Home | Current Version | Previous Version | Text Only | Print | Product List | Glossary Off
Versions: 1 2 3 4 5 6 7 8 9 10 11 12 13 14 15 16 17 18 19 20 21 22 23 24 25 26 27 28 29 30 31 32 33 34 35 36 37 38 39 40 41 42 43 44 45 46 47 48 49 50

000
ASUS43 KLOT 231306
RWRIL

ILLINOIS REGIONAL WEATHER ROUNDUP
NATIONAL WEATHER SERVICE CHICAGO/ROMEOVILLE IL
800 AM CDT TUE SEP 23 2014

NOTE: "FAIR" INDICATES FEW OR NO CLOUDS BELOW 12,000 FEET WITH NO
SIGNIFICANT WEATHER AND/OR OBSTRUCTIONS TO VISIBILITY.

* THESE STATIONS ARE NOT UNDER NWS QUALITY CONTROL. THEY ALSO MAY NOT
  REPORT WEATHER SUCH AS PRECIPITATION OR FOG.

ILZ001-002-007-009-015-016-024-231400-
NORTHWEST ILLINOIS

CITY           SKY/WX    TMP DP  RH WIND       PRES   REMARKS
MOLINE         SUNNY     49  46  90 CALM      30.31R
STERLING*      SUNNY     48  43  81 CALM      30.32S
SAVANNA*       SUNNY     47  45  95 CALM      30.31R
$$

ILZ003-004-008-010-011-017-018-231400-
NORTH CENTRAL ILLINOIS

CITY           SKY/WX    TMP DP  RH WIND       PRES   REMARKS
ROCKFORD       MOSUNNY   48  44  86 S3        30.35R
ROCHELLE*      SUNNY     46  45  93 CALM      30.33R
DE KALB*       SUNNY     49  45  84 SW3       30.34R
PERU*          SUNNY     50  45  80 CALM      30.34R
$$

ILZ005-006-012>014-019>023-231400-
NORTHEAST ILLINOIS

CITY           SKY/WX    TMP DP  RH WIND       PRES   REMARKS
CHICAGO-OHARE  SUNNY     54  43  66 SW5       30.33R
CHICAGO-MIDWAY SUNNY     55  46  71 SW6       30.33R
AURORA         SUNNY     47  44  90 CALM      30.34R FOG
LANSING*       SUNNY     49  45  84 CALM      30.34R
JOLIET*        SUNNY     49  47  95 S3        30.35R
WAUKEGAN       SUNNY     51  46  83 SW5       30.31R
DUPAGE AIRPORT SUNNY     51  46  83 CALM      30.33R
KANKAKEE*      SUNNY     48  46  93 CALM      30.35R FOG
WHEELING       SUNNY     53  45  74 CALM      30.34R
MORRIS*        SUNNY     49  49  99 CALM      30.33S
ROMEOVILLE*    SUNNY     49  48  95 CALM      30.34R
NORTHERLY ISL    N/A     56  42  59 SW12        N/A
$$

LMZ740>746-231400-
SOUTHERN LAKE MICHIGAN

STATION/POSITION SKY/WX   TEMP    WIND        PRES    VSBY  WAVE
                          AIR SEA DIR/SP/G                  HT/PER
                          (F)     (DEG/KT/KT) (MB)    (MI)  (FT/S)
SOUTHERN BUOY              60 62  240/ 10/ 12 1026.4R         2/ 4
WAUKEGAN HARBOR            54     260/ 11/ 13   N/A
BURNHAM HARBOR             57     250/  8/ 11   N/A
CALUMET HARBOR             54     220/  4/  6 1025.8R
MICHIGAN CITY 6N           56 63  210/  8/ 10   N/A           1/ 2
ST. JOSEPH                 58 64  180/  8/ 10   N/A           1/ 2
$$

ILZ025>027-034>036-040-047-049-050-058-095>099-231400-
WEST-CENTRAL ILLINOIS

CITY           SKY/WX    TMP DP  RH WIND       PRES   REMARKS
QUINCY         MOSUNNY   53  45  74 SE6       30.30R
GALESBURG*     SUNNY    N/A N/A N/A SE5       30.32R
MACOMB*        SUNNY     44  44 100 CALM      30.33S
JACKSONVILLE*  SUNNY     51  48  90 CALM      30.32S
PITTSFIELD*    MOSUNNY   52  47  85 CALM      30.32R
$$

ILZ028>032-037-038-041>044-048-051>054-059>061-231400-
CENTRAL ILLINOIS

CITY           SKY/WX    TMP DP  RH WIND       PRES   REMARKS
PONTIAC        SUNNY     48  48 100 CALM      30.33S
BLOOMINGTON    SUNNY     51  47  86 S8        30.34R
DECATUR        SUNNY     49  46  90 CALM      30.34R
PEORIA         SUNNY     54  47  77 CALM      30.33R
LACON*         SUNNY     49  46  90 CALM      30.32S
LINCOLN*       SUNNY     49  45  87 CALM      30.31F
SPRINGFIELD    SUNNY     52  46  80 CALM      30.33R
TAYLORVILLE    SUNNY     48  46  93 CALM      30.32S
$$

ILZ033-039-045-046-055>057-062-063-231400-
EAST-CENTRAL ILLINOIS

CITY           SKY/WX    TMP DP  RH WIND       PRES   REMARKS
CHAMPAIGN      SUNNY     52  48  86 SE8       30.34R
DANVILLE*      SUNNY     49  47  93 CALM      30.31S
RANTOUL*       SUNNY     52  46  82 CALM      30.35R
MATTOON        SUNNY     51  46  83 SE3       30.33R
PARIS*         SUNNY     49  49 100 CALM      30.35R
$$

ILZ079-100>102-231400-
SOUTHWEST ILLINOIS

CITY           SKY/WX    TMP DP  RH WIND       PRES   REMARKS
ALTON          MOSUNNY   46  46 100 CALM      30.31S
BELLEVILLE     SUNNY     51  51  99 CALM      30.31R
CAHOKIA*       SUNNY     52  50  93 CALM      30.32R
SPARTA*        SUNNY     49  47  95 CALM      30.32R
$$

ILZ064>066-069>071-074>076-080>082-084>086-088>090-092>094-231400-
SOUTH-CENTRAL ILLINOIS

CITY           SKY/WX    TMP DP  RH WIND       PRES   REMARKS
CARBONDALE     MOSUNNY   47  46  97 CALM      30.31S FOG
CAIRO*         SUNNY     51  49  92 CALM      30.29S
EFFINGHAM*     SUNNY     49  46  91 CALM      30.33R
MARION         MOSUNNY   48  48 100 MISG      30.32R
MT. VERNON     SUNNY     48  45  87 N3        30.32R
CENTRALIA*     SUNNY     48  46  93 CALM      30.32R
SALEM*         SUNNY     53  50  89 CALM      30.33R
METROPOLIS*    SUNNY     51  51 100 CALM      30.29R
$$

ILZ067-068-072-073-078-083-087-091-231400-
SOUTHEAST ILLINOIS

CITY           SKY/WX    TMP DP  RH WIND       PRES   REMARKS
LAWRENCEVILLE  SUNNY     51  49  92 NE3       30.34R
FLORA*         SUNNY     48  47  97 CALM      30.32S
FAIRFIELD*     SUNNY    N/A N/A N/A CALM      30.31S
HARRISBURG*    SUNNY     48  48 100 CALM      30.32R
ROBINSON*      SUNNY     49  49  99 CALM      30.35R
CARMI*         SUNNY     50  50 100 CALM      30.32R
$$

ABBREVIATIONS USED IN REMARKS
   TC - TEMPERATURE IN CELSIUS
  WCI - WIND CHILL INDEX
   HX - HEAT INDEX
  VSB - VISIBILITY
$$



USA.gov is the U.S. government's official web portal to all federal, state and local government web resources and services.